BLOCK DM-SL R/B, 26762

Orbit data source: Space-Track

BLOCK DM-SL R/B, 26762 is space debris in HEO originally from a launch on Tue, 08 May 2001 UTC launched from the Sea Launch (SEAL). Debris objects in space refer to the collection of defunct objects orbiting the Earth. Examples of debris include non-operational satellites, rocket bodies, and fragments generated from explosions, collisions, or faulty payload assembly.

Loading next visibility...
Identifier
26762, 2001-018B
Orbit
HEO
Country
Flag of UnknownUnknown / SEAL
Related business
Manufacturer
RKKE
Mission
Spacecraft
Bus & Motor
BLOK DM2, 11D58M
Mass
~3,210 kg wet, ~3,210 kg dry
Launch date (UTC)
2001-05-08 (25 years ago)
Launch vehicle
Unknown
Launch site
Sea Launch (SEAL)
Object type
Payload
Rocket body
Debris
Shape & HBR
Cyl, 3.1 m
Radar Cross Section
23.684 m², Large (>1 m²)

Expand to show TLE details & history
Last TLE update: 13 hours ago

TLE from 13 hours ago
0 BLOCK DM-SL R/B
1 26762U 01018B   26061.57095926 -.00000124  00000-0  16544-2 0  9991
2 26762   1.0598  89.4648 7053783  49.6481  46.9433  2.23847178203053
Epoch: 2026-03-02T13:42Z
TLE epoch observation values (Epoch: 2026-03-02T13:42:10.880Z)
Latitude
-0.01304°
Longitude
-93.77216°
Altitude
17,473.246 km
Speed
4.156 km/s
True Right ascension
18h 08m 32s
True Declination
0° 00' 47"
Sunlit
Object was in daylight at epoch
Visualization orbit readout
Latitude
Unknown
Longitude
Unknown
Altitude
Unknown
Speed
Unknown
Apparent Right ascension
Unknown
Apparent Declination
Unknown
Sunlit
N/A
Visualization observer readout
Local Sidereal Time
06:53:34
Azimuth
Unknown
Elevation
Unknown
Doppler factor
Unknown
Orbital elements
Apogee altitude
35,727.785 km
Perigee altitude
896.096 km
Semi-major axis
24,690.077 km
Eccentricity
0.70538
Inclination
1.0598°
RAAN
89.4648°
Arg. of periapsis
49.6481°
True anomaly
132.92408°
Mean anomaly
46.9433°
Eccentric anomaly
87.3141°
Mean motion
0.55945 °/min
Orbital period
643.49 mins
BSTAR
0.0016544
Loading maneuver chart data...
Computing Atmospheric mass density...
Loading historical data...
Loading historical data...
Loading historical data...
Loading historical data...
Loading historical data...
Loading historical data...
Loading historical data...
Other satellites on launch #18 in the year 2001 (2001-05-08 UTC)

Documentation

Showing up to 5 results
|